This is the latest recevied weather packets stored in our database for station/object HB9HFD-13. If no packets are shown the sender has not sent any weather packets the latest 10 day(s).
| Time | Temp. | Humidity | Pressure | Rain* | Wind** | Luminosity | Snow |
|---|---|---|---|---|---|---|---|
| 1777719353 | 22.22° C | 46% | 1019.3 hPa | 0 mm | - | - | - |
| 1777719053 | 22.22° C | 44% | 1019.5 hPa | 0 mm | - | - | - |
| 1777718753 | 22.22° C | 46% | 1019.5 hPa | 0 mm | - | - | - |
| 1777718453 | 22.22° C | 47% | 1019.6 hPa | 0 mm | - | - | - |
| 1777718153 | 22.22° C | 48% | 1019.5 hPa | 0 mm | - | - | - |
| 1777717852 | 21.67° C | 49% | 1019.6 hPa | 0 mm | - | - | - |
| 1777717552 | 21.67° C | 47% | 1019.7 hPa | 0 mm | - | - | - |
| 1777717252 | 21.67° C | 51% | 1019.7 hPa | 0 mm | - | - | - |
| 1777716952 | 21.11° C | 48% | 1019.8 hPa | 0 mm | - | - | - |
| 1777716651 | 21.11° C | 48% | 1019.9 hPa | 0 mm | - | - | - |
| 1777716351 | 20.56° C | 52% | 1019.9 hPa | 0 mm | - | - | - |
| 1777716051 | 21.11° C | 49% | 1020 hPa | 0 mm | - | - | - |
| 1777715750 | 20.56° C | 49% | 1020 hPa | 0 mm | - | - | - |
| 1777715450 | 20.56° C | 47% | 1020.2 hPa | 0 mm | - | - | - |
| 1777715150 | 20.56° C | 47% | 1020.2 hPa | 0 mm | - | - | - |
| 1777714850 | 20.56° C | 47% | 1020.3 hPa | 0 mm | - | - | - |
| 1777714549 | 20° C | 50% | 1020.4 hPa | 0 mm | - | - | - |
| 1777714249 | 19.44° C | 51% | 1020.3 hPa | 0 mm | - | - | - |
| 1777713949 | 19.44° C | 48% | 1020.4 hPa | 0 mm | - | - | - |
| 1777713648 | 19.44° C | 47% | 1020.4 hPa | 0 mm | - | - | - |
| 1777713348 | 19.44° C | 48% | 1020.4 hPa | 0 mm | - | - | - |
| 1777713048 | 19.44° C | 48% | 1020.5 hPa | 0 mm | - | - | - |
| 1777712748 | 19.44° C | 48% | 1020.5 hPa | 0 mm | - | - | - |
| 1777712447 | 18.89° C | 51% | 1020.6 hPa | 0 mm | - | - | - |
| 1777712147 | 18.89° C | 50% | 1020.6 hPa | 0 mm | - | - | - |
* Rain latest hour (hover to see other rain measurements)
** Current wind speed in m/s (hover to see current wind gust speed)